パンスターズ彗星

C/2019 B3 ( PanSTARRS )

English version
Home page
Updated on January 20, 2022

---------------------------------------------------------------------

・ プロフィール

発見日 2019年1月24日
発見光度 19.6等
発見者 Pan-STARRS 1 telescope (Haleakala)

・ 写真集

・ 軌道要素

Epoch 2021 Jan. 26.0 TT = JDT 2459240.5
T 2021 Jan. 20.03117 TT                                 Rudenko
q   6.8230026            (2000.0)            P               Q
z  -0.0003640      Peri.  263.91212     -0.11687378     +0.99282800
 +/-0.0000022      Node   358.42821     +0.00237961     -0.02505492
e   1.0024837      Incl.   66.53616     -0.99314393     -0.11689664
From 126 observations 2019 Jan. 24-2021 Sept. 12, mean residual 0".6.

・ 光度変化

        m1 = 5.5 + 5 logΔ + 10.0 log r

---------------------------------------------------------------------

軌道要素はM.P.E.C. 2021-S45に掲載されたものです。
光度グラフはComet for Windowsで作成したものです。

---------------------------------------------------------------------

Copyright(C) Seiichi Yoshida (comet@aerith.net). All rights reserved.